Wind_Speed
3 3 1 4 6 6 7 6 6 5 4 3 3 3 3 3 4 6 6 6 1 4 1 4 6 6 6 6 6 12 16 14 14 12 14 21 24 24 24 24 26 28 28 26 25 25 25 27 28 28 29 27 25 23 22 23 21 18 18 17 16 15 14 13 10 7 6 5 4 3 3 3 2 1 1 1 1 1 1 2 3 2 2 1 0 1
3 3 5 8 9 8 7 5 5 4 3 2 2 2 3 3 4 7 4 6 3 3 3 0 6 3 4 3 3 10 12 10 13 15 18 23 23 24 26 25 25 26 27 26 26 26 26 28 28 29 30 28 27 25 24 25 21 18 19 19 17 16 15 12 9 6 5 3 3 3 4 4 3 1 1 1 1 1 1 3 4 3 2 2 2 2
3 2 10 9 6 5 4 4 5 3 3 3 2 2 2 3 3 7 5 5 4 4 1 1 5 2 5 3 3 4 4 3 9 14 19 23 23 26 27 26 25 24 25 27 27 26 28 28 28 30 31 30 30 29 28 27 23 20 21 21 19 17 15 12 9 7 5 3 3 3 4 4 3 2 2 2 2 1 2 4 4 4 2 1 3 3
0 5 8 5 7 6 2 3 6 4 2 2 3 3 3 3 1 2 4 5 5 3 3 4 5 4 6 2 2 2 0 2 6 10 15 21 23 25 26 25 25 25 26 28 28 28 30 30 29 30 32 32 32 31 31 30 26 23 24 23 21 20 16 12 10 8 6 5 4 5 5 4 3 3 3 4 2 1 2 3 3 2 2 1 2 2
5 7 3 7 7 7 4 3 6 5 2 3 3 5 3 4 4 4 3 5 5 4 4 6 5 4 5 3 2 3 2 4 6 9 12 17 19 19 21 22 24 25 26 28 29 31 32 33 33 31 33 34 33 32 32 32 28 25 25 25 23 21 17 12 11 9 8 7 6 7 6 5 5 5 5 4 2 1 2 2 2 1 1 2 3 2
7 7 5 6 4 5 5 4 5 7 2 4 4 8 7 5 4 3 3 5 4 5 4 5 4 3 6 4 3 2 2 3 5 9 11 14 16 16 19 22 24 25 25 26 28 31 33 34 34 32 34 35 34 33 32 31 28 25 25 26 25 22 16 12 11 11 10 9 8 8 6 4 4 4 4 4 2 2 2 1 1 1 0 2 2 2
4 2 4 5 5 5 4 3 5 7 6 1 5 8 7 5 4 2 3 4 2 0 2 4 5 1 6 4 4 4 1 2 2 5 9 13 16 17 20 22 24 26 26 26 28 31 33 34 34 35 35 35 34 32 31 29 26 24 26 28 27 21 15 11 11 12 12 11 9 8 5 1 1 2 3 3 3 2 2 2 2 1 1 1 1 1
4 3 3 3 5 5 3 3 5 8 8 2 5 7 8 6 5 4 5 4 1 2 2 5 5 4 2 4 5 4 2 2 2 4 6 11 16 18 21 22 24 26 27 28 30 32 34 35 35 35 36 35 34 30 27 25 24 25 27 29 25 18 12 11 13 14 14 12 10 8 5 2 1 1 2 2 2 2 2 3 2 1 0 0 1 1
3 4 3 4 4 2 4 5 7 10 5 5 5 7 6 5 4 4 6 3 1 2 2 6 4 4 2 5 5 5 3 4 6 5 6 9 15 19 21 22 23 25 27 29 30 32 34 35 35 35 35 33 28 24 22 22 23 25 23 22 20 15 12 14 15 15 14 12 10 7 5 4 3 3 3 3 3 3 2 2 2 0 1 1 2 3
2 4 6 6 4 4 6 4 8 10 4 4 7 6 5 5 5 5 5 3 3 3 3 6 3 2 3 5 4 4 3 4 6 5 6 10 16 19 21 22 23 25 28 30 30 31 32 33 34 33 28 24 21 19 19 20 22 23 18 16 18 17 15 17 17 16 14 12 10 8 6 6 5 5 4 4 4 3 2 1 1 1 1 1 2 3
3 1 3 4 4 5 4 2 3 5 3 6 7 6 6 6 5 4 3 4 4 2 5 6 2 3 1 4 1 1 2 4 6 7 6 7 14 20 22 23 23 24 28 30 30 30 30 31 30 24 18 15 15 15 17 17 18 18 16 16 19 18 18 19 18 17 16 13 12 10 8 7 5 4 4 5 4 2 2 2 1 1 1 2 3 3
6 2 2 3 3 4 5 5 3 3 3 5 5 5 5 4 4 4 5 4 4 2 6 5 2 4 3 3 3 4 6 6 5 8 8 4 9 18 23 24 23 23 27 29 29 29 29 29 23 16 14 14 14 16 17 16 14 13 14 15 18 19 20 20 19 18 17 15 14 11 9 7 5 4 4 5 4 2 1 2 2 2 3 3 3 4
4 3 4 4 3 4 5 4 2 5 5 5 5 5 5 2 2 2 3 1 1 4 3 3 2 1 3 4 4 5 7 6 6 9 11 10 12 16 21 24 22 22 24 26 27 28 29 26 19 17 18 19 20 21 19 16 15 16 17 16 18 21 22 21 20 19 17 15 14 12 9 8 7 4 3 5 4 2 2 2 3 4 4 5 5 5
3 5 5 2 2 2 5 6 3 1 1 4 5 5 4 3 2 1 3 1 2 4 2 5 3 0 3 3 2 4 6 8 8 6 6 7 7 7 12 17 18 18 18 18 20 21 21 18 17 19 23 24 24 23 20 16 17 20 19 19 22 23 24 23 21 19 18 16 14 12 10 9 8 6 4 6 6 3 3 3 4 4 5 6 6 6
2 3 3 2 1 1 3 5 6 5 3 3 4 5 5 4 4 3 3 2 3 2 2 4 2 2 2 2 3 5 6 7 5 7 11 10 10 12 11 11 12 12 11 11 11 8 6 8 14 19 22 23 23 23 22 18 19 22 18 16 20 22 23 25 23 19 18 17 16 14 12 10 10 7 5 6 7 5 4 4 5 5 5 6 6 6
4 4 6 4 1 2 2 2 5 7 3 1 2 5 3 4 5 3 3 4 4 2 0 1 2 2 3 3 5 4 5 7 6 11 17 18 18 20 19 17 14 12 11 10 10 9 8 5 6 14 18 20 21 22 22 19 19 20 13 10 15 19 22 24 23 21 20 20 18 15 13 12 11 9 6 7 10 8 6 6 6 6 6 5 6 5
3 4 6 3 1 1 1 3 3 4 3 1 2 3 4 4 7 6 2 1 3 4 1 1 2 4 2 2 4 5 5 6 5 7 14 19 21 23 22 19 16 14 12 9 7 9 8 10 7 4 9 15 17 19 20 17 15 13 9 9 12 15 20 24 25 23 22 22 19 16 14 13 12 9 7 9 12 11 9 8 7 8 7 6 5 4
4 3 5 1 1 2 2 4 4 3 4 4 3 5 3 3 5 5 3 3 4 3 3 2 1 3 1 0 3 3 2 1 3 3 5 13 19 20 18 17 13 8 6 4 3 0 1 3 7 7 5 7 10 12 14 12 12 11 8 8 11 12 16 22 25 24 23 23 21 18 17 15 12 9 8 11 13 13 11 9 8 9 8 7 6 5
4 1 6 2 2 3 5 7 4 5 4 4 5 4 4 3 2 2 3 2 2 2 2 2 1 2 3 3 3 3 5 4 2 3 3 4 9 12 11 13 11 7 5 6 8 6 5 3 3 5 4 2 2 6 8 7 9 9 6 7 11 11 11 18 24 24 24 24 22 20 18 16 13 11 12 14 13 13 12 11 10 9 9 8 7 5
3 2 4 3 1 2 5 4 2 2 5 4 3 3 2 3 4 2 3 3 4 4 2 1 2 2 5 4 5 6 7 6 4 1 1 1 5 8 8 9 12 12 10 12 15 13 9 6 3 2 4 3 2 3 4 4 6 6 5 8 10 10 11 15 22 25 24 22 22 22 20 18 16 14 15 15 14 11 11 10 10 9 9 8 7 6
3 3 3 4 4 2 2 1 3 4 2 3 3 1 1 2 3 2 2 2 4 5 3 2 0 5 5 3 5 6 7 6 4 3 3 4 7 9 9 10 11 12 13 14 14 12 9 7 5 4 3 3 1 2 3 4 5 5 7 9 10 10 10 12 18 24 24 21 21 22 22 20 18 16 16 17 15 11 9 9 9 9 9 10 9 7
2 3 3 1 4 2 1 3 3 4 5 5 3 2 3 3 4 4 2 1 2 4 4 4 2 6 5 2 4 5 5 5 4 4 5 7 10 11 12 13 13 13 14 14 12 11 10 8 7 6 5 4 5 5 4 5 6 6 7 9 10 10 10 12 16 23 25 22 20 21 23 22 19 18 18 18 16 13 10 10 9 9 11 12 12 10
3 4 3 1 1 1 4 3 3 1 3 6 4 2 3 3 3 5 4 3 2 2 2 4 2 5 5 3 4 5 4 6 6 6 7 10 13 13 15 16 16 17 16 15 14 12 10 8 7 7 6 6 6 6 5 4 5 6 6 8 9 9 11 13 16 20 24 23 21 22 24 23 20 20 20 18 16 14 13 13 12 11 12 13 13 13
1 4 4 1 3 4 5 4 5 4 5 6 4 3 3 1 2 4 5 3 4 3 2 3 0 5 5 4 4 2 6 7 5 5 8 11 13 14 16 18 18 18 16 15 13 11 9 9 8 7 7 7 7 6 5 5 5 5 6 7 8 9 11 13 16 18 21 22 22 23 24 23 21 22 21 19 17 17 17 16 15 13 13 14 14 15
1 1 4 3 2 3 3 4 5 5 4 4 2 3 2 3 4 3 2 3 3 4 4 4 3 5 5 4 5 3 6 6 5 5 7 9 13 16 17 18 17 16 15 12 11 10 10 9 8 8 8 8 8 7 6 6 6 6 6 6 7 9 10 12 15 17 18 19 20 22 23 22 21 22 21 19 18 19 19 18 17 16 16 17 16 16
3 2 3 5 4 4 3 2 3 1 2 2 2 4 4 4 3 1 2 4 2 4 4 4 5 5 4 5 7 6 5 5 4 4 5 6 11 15 16 16 15 14 13 11 10 11 11 10 9 9 8 8 8 7 6 5 5 5 5 5 7 8 9 11 13 14 15 15 16 19 20 19 19 20 20 18 18 19 20 19 17 16 17 19 20 19
4 3 2 5 5 6 6 5 5 3 4 2 2 5 5 3 2 3 4 2 3 4 2 3 5 3 2 7 7 7 6 5 4 3 3 3 6 9 11 13 13 12 12 11 11 11 10 10 10 10 9 9 8 6 5 4 4 4 3 4 6 8 9 9 9 10 13 14 14 16 16 14 14 15 16 18 19 19 19 19 18 16 16 18 20 20
5 4 3 4 4 2 3 2 3 2 5 4 4 3 4 4 5 5 3 1 4 6 2 6 2 5 1 6 7 7 6 5 6 9 8 5 3 3 7 10 12 12 12 12 10 10 9 10 10 10 10 10 8 7 5 4 5 5 4 5 6 8 9 8 7 8 11 13 14 14 14 13 12 12 14 16 16 17 18 18 17 17 17 17 19 20
6 2 1 3 5 4 4 4 4 4 4 2 4 3 3 4 5 4 1 2 2 5 5 4 5 4 2 5 6 6 5 4 6 10 8 6 4 1 5 8 10 11 12 12 11 11 10 10 10 10 11 10 10 9 7 7 7 6 6 7 7 8 8 8 7 7 8 10 13 14 14 14 13 13 14 13 12 13 16 16 16 19 20 20 21 22
4 2 1 4 5 5 5 5 5 5 5 5 6 4 2 4 6 5 2 1 1 2 3 7 10 6 3 4 5 5 5 8 13 15 13 9 6 2 4 6 7 8 10 11 12 13 13 13 12 11 11 10 10 9 9 8 8 7 6 7 7 8 8 7 8 8 7 8 10 12 13 13 13 14 14 14 13 13 14 15 15 16 16 14 12 13
4 3 2 4 5 4 5 4 4 5 7 3 4 5 3 5 6 4 3 2 2 3 4 7 10 6 3 4 5 7 12 17 19 20 18 15 10 6 6 5 5 5 6 8 10 12 14 15 14 13 12 11 10 9 8 8 7 6 6 6 6 6 6 7 7 8 7 7 7 9 10 11 11 12 13 12 11 10 10 10 10 8 6 5 4 4
3 3 1 4 5 1 2 3 4 6 9 5 1 4 4 3 4 3 2 2 1 3 5 6 6 2 2 3 7 13 19 21 20 19 21 21 16 12 10 9 7 5 4 5 7 9 11 13 15 15 14 13 11 10 8 7 7 6 5 5 5 5 6 6 6 7 8 7 7 7 7 8 8 9 9 9 8 8 8 8 7 6 5 4 3 3
2 4 3 3 4 3 1 2 4 5 6 2 2 2 3 2 4 4 4 4 3 2 5 4 4 4 2 2 6 11 15 17 18 19 21 22 22 20 17 14 13 11 9 6 5 6 8 10 12 13 13 13 13 12 11 9 8 7 6 6 5 5 6 6 6 7 7 8 8 8 8 8 8 8 8 8 8 8 8 7 6 5 4 4 3 2
2 4 3 2 4 4 2 2 3 3 2 3 5 3 1 2 5 6 4 4 5 3 3 3 4 3 3 5 8 10 12 15 19 22 23 24 24 24 21 18 17 16 15 12 10 9 8 8 9 10 10 11 11 11 12 11 10 8 7 6 5 5 5 5 5 5 5 6 6 7 7 7 7 7 6 6 6 6 5 5 4 4 3 3 3 3
3 4 2 2 4 4 0 4 4 2 5 3 4 3 2 5 7 10 8 4 6 5 4 6 6 5 6 9 12 15 17 20 24 26 26 26 25 25 23 20 17 15 14 13 11 11 11 10 9 9 9 10 9 9 10 10 10 9 8 6 5 4 4 5 6 6 6 6 6 6 6 7 7 7 7 7 7 6 6 5 5 5 5 6 5 5
4 3 2 2 3 3 2 3 3 3 4 3 4 4 2 2 3 7 7 6 6 5 3 4 4 2 5 7 10 13 16 21 27 27 25 24 24 25 24 22 19 15 13 11 9 7 6 7 7 6 5 5 5 5 5 5 5 6 7 7 6 5 4 4 6 7 7 6 6 6 6 6 6 7 8 8 8 8 7 7 7 7 7 7 7 6
5 4 2 2 1 3 4 2 1 3 4 2 2 1 1 1 1 3 4 2 4 4 2 4 3 3 3 4 5 8 10 16 20 20 21 21 20 21 21 20 19 17 15 14 11 8 6 4 5 6 2 2 4 4 3 3 5 6 7 8 7 6 5 5 5 6 6 5 5 4 4 4 5 6 8 9 9 9 9 8 8 7 7 7 7 6
4 2 3 3 2 3 5 3 2 3 2 4 4 2 2 3 3 5 5 1 4 4 3 5 4 5 5 5 2 4 4 8 7 9 15 17 15 15 16 16 15 15 15 14 12 12 10 6 6 6 4 1 4 6 6 6 6 6 8 9 8 8 8 7 7 7 7 6 5 5 5 6 6 7 8 9 9 10 9 9 8 7 7 6 6 6
7 3 3 4 2 3 5 4 2 3 3 4 4 5 8 6 4 5 5 1 3 2 4 6 7 7 8 9 7 4 4 4 1 3 10 13 12 12 12 11 11 11 11 11 10 10 10 8 5 4 4 2 1 3 6 9 8 7 8 8 7 9 10 9 9 10 10 10 11 11 11 10 11 10 9 9 10 10 10 9 9 8 8 8 8 8
7 5 4 4 2 2 4 3 2 3 2 2 4 7 10 4 3 5 2 4 3 2 5 8 10 10 9 11 10 8 5 4 2 2 8 9 9 11 10 10 10 10 10 10 9 8 7 6 5 5 5 4 4 3 4 8 10 10 10 9 8 9 10 9 10 11 12 12 12 13 13 13 13 13 12 12 12 12 12 12 11 11 11 11 11 10
4 3 2 3 3 3 4 3 1 2 2 2 5 9 8 2 5 3 4 6 1 5 7 10 12 11 12 12 11 8 5 5 3 3 6 8 8 9 10 10 11 12 12 13 12 11 10 9 8 8 8 8 8 9 9 9 9 11 13 13 12 13 13 13 13 14 15 16 16 16 15 15 15 15 16 16 16 15 15 15 14 13 13 13 13 12
2 3 3 2 2 2 3 3 1 2 3 5 6 8 7 3 4 3 4 3 5 7 8 10 10 10 11 12 10 8 5 4 4 5 7 9 10 10 11 12 12 13 14 14 14 15 14 13 13 12 11 10 10 11 11 11 10 10 12 13 13 14 13 13 14 15 16 18 20 20 19 19 19 19 18 18 18 17 16 16 15 15 15 15 15 15
1 1 2 1 1 2 2 3 3 3 5 10 6 4 6 3 5 5 6 6 7 8 8 9 9 9 9 8 7 6 5 5 6 7 9 10 11 12 13 14 15 16 16 16 17 17 18 17 17 17 17 15 14 13 13 14 13 13 13 15 15 15 15 14 15 16 16 18 21 22 21 20 20 19 18 17 17 16 16 16 16 16 16 16 16 16
2 1 1 1 1 2 2 1 2 4 5 9 6 4 3 6 9 8 8 6 7 7 7 7 7 7 7 7 7 7 7 8 9 10 12 13 14 15 16 17 18 18 19 19 19 20 20 21 21 20 20 20 19 17 16 16 16 16 16 16 16 18 19 18 18 18 18 19 20 22 21 21 21 20 19 18 17 17 17 17 17 17 17 17 17 17
2 2 4 2 1 2 3 2 4 3 3 11 15 13 11 11 9 7 6 5 4 3 3 5 5 6 7 8 9 9 10 11 12 13 15 16 17 18 18 19 19 20 21 21 22 22 22 22 23 23 23 22 21 20 20 19 19 19 18 16 16 18 20 21 21 21 20 20 20 22 23 23 23 23 22 21 21 20 19 19 18 18 18 18 18 17
1 3 5 3 2 4 6 5 5 5 6 11 14 13 12 11 8 6 4 3 1 1 2 3 5 6 7 9 11 11 12 13 15 16 17 18 19 19 20 20 21 21 22 23 23 23 23 24 24 25 25 24 22 21 21 20 21 22 20 18 16 16 17 19 21 21 21 21 20 21 23 24 25 25 24 23 22 22 21 21 20 20 20 19 19 18
1 2 3 3 3 3 3 3 4 4 7 11 12 12 11 10 8 7 5 4 3 3 2 3 4 5 7 8 10 11 12 14 16 17 18 19 20 21 22 23 24 24 24 25 24 24 25 25 26 26 26 26 24 22 21 21 21 22 22 21 18 17 16 17 17 18 19 19 19 20 22 23 23 23 22 22 21 21 21 21 21 21 22 21 21 21
2 4 4 3 2 1 2 4 5 6 6 8 10 10 9 8 6 5 4 2 2 2 2 3 4 6 8 9 11 13 14 15 17 18 20 21 22 23 24 25 26 27 27 27 27 27 27 27 27 27 27 27 26 24 23 23 22 22 23 22 21 20 20 19 17 17 17 17 17 18 19 20 20 20 20 20 20 20 21 21 21 22 22 22 22 22
2 2 1 2 3 2 0 2 5 4 3 5 7 7 5 4 3 1 1 2 3 4 5 6 8 9 10 12 13 15 16 17 18 20 22 23 24 25 26 27 28 29 29 30 30 30 30 30 30 30 31 30 28 26 25 24 24 24 24 23 22 22 23 23 22 20 19 18 17 17 17 18 19 19 20 21 21 21 21 21 22 22 23 23 23 23
2 1 1 4 4 1 2 6 9 4 1 6 9 6 4 4 2 2 3 4 5 6 7 8 9 10 11 13 14 16 18 19 20 21 22 22 23 24 25 26 27 28 29 29 30 30 31 31 32 32 33 33 32 30 28 25 24 23 22 22 22 22 22 24 24 24 23 22 20 19 18 18 19 20 21 21 22 23 23 23 24 25 25 25 25 25
2 4 4 4 4 3 4 10 12 5 1 5 7 6 5 4 4 4 4 5 6 7 8 8 10 11 13 14 16 18 19 19 19 19 19 20 20 21 23 24 26 27 28 29 30 30 31 31 31 32 33 33 33 33 31 28 24 21 20 19 19 20 20 21 23 25 25 24 22 21 20 19 20 21 22 23 24 24 25 26 26 27 28 29 28 27
Wind_Direction
122 116 176 205 209 216 213 187 169 166 133 110 131 165 212 222 271 270 268 282 232 116 244 214 175 200 201 187 171 157 159 161 166 169 166 174 185 193 196 199 203 203 199 197 197 197 197 195 191 193 194 193 197 195 195 209 205 185 188 193 189 187 186 190 192 192 197 205 215 235 255 260 265 248 200 214 208 210 268 327 320 286 256 257 244 184
76 114 231 222 208 203 201 177 144 131 100 66 144 197 261 221 246 262 262 307 312 103 337 317 139 209 227 208 202 161 158 168 173 173 175 179 186 195 201 203 206 208 202 195 198 199 198 197 194 195 196 197 201 199 197 209 210 193 194 199 193 191 196 196 198 203 203 216 252 289 299 294 291 268 210 195 196 222 316 350 343 316 257 219 203 200
33 243 247 228 184 153 143 141 132 128 107 84 131 152 266 244 268 286 284 321 346 86 353 69 116 302 295 254 229 183 170 188 189 187 183 184 189 196 204 205 206 210 207 198 199 200 199 198 198 197 197 199 203 203 203 211 214 203 201 203 196 196 202 198 198 205 203 217 252 280 295 296 288 263 228 204 205 263 344 353 348 330 307 235 202 210
105 252 248 198 144 135 125 129 114 99 117 131 137 135 256 260 114 301 301 331 349 63 119 120 94 338 325 360 163 186 80 116 181 195 193 193 196 200 205 205 205 208 210 204 201 200 199 199 201 200 199 202 206 207 208 212 215 210 206 205 199 198 203 201 200 201 201 210 240 260 268 267 249 245 237 218 219 308 356 354 355 337 339 38 126 165
222 238 185 123 141 160 162 160 134 137 233 265 185 161 227 250 184 212 296 345 346 20 75 83 47 344 342 8 198 193 96 100 155 173 190 202 204 208 211 210 209 210 213 211 205 202 201 201 202 202 203 207 210 211 213 216 216 212 210 207 201 200 202 203 202 199 201 208 228 239 237 234 223 220 226 222 225 327 360 358 4 343 19 74 86 100
249 241 167 138 164 174 165 189 183 167 179 306 240 192 198 204 189 219 334 24 34 9 15 65 63 326 322 325 261 269 78 110 153 164 182 200 207 214 216 214 211 212 216 217 211 206 204 204 204 205 207 211 214 216 217 219 217 213 213 207 199 199 202 205 203 198 203 211 225 233 228 228 230 222 221 217 233 284 308 306 273 272 121 107 96 91
248 221 149 151 155 148 152 222 224 165 128 317 246 191 173 155 145 143 54 57 89 317 331 68 112 216 315 316 300 324 34 126 167 184 191 199 206 216 219 216 212 212 216 218 214 209 207 207 207 208 209 212 216 217 218 221 220 217 213 205 197 196 200 203 201 198 203 213 219 222 214 205 304 242 226 217 225 251 258 247 241 245 192 136 117 117
190 137 76 101 116 122 148 237 225 150 122 228 229 158 147 152 163 142 91 84 176 204 326 14 93 123 310 281 299 347 39 337 280 224 219 208 208 216 221 222 217 214 216 217 214 210 210 210 211 213 212 214 216 216 218 218 214 209 204 198 192 190 199 204 202 202 207 215 217 209 192 165 138 236 247 236 213 206 221 231 230 228 151 29 354 328
190 170 175 128 99 132 196 218 189 152 139 233 197 136 137 145 142 117 96 93 32 89 312 331 33 100 258 278 319 14 44 315 280 242 242 226 216 216 221 225 225 221 218 218 217 214 213 214 216 217 216 217 217 215 213 207 205 205 198 191 190 192 206 206 203 207 211 214 213 202 185 181 196 217 236 236 208 196 203 214 214 196 14 354 351 342
241 203 195 142 129 211 221 217 177 164 171 189 143 101 76 72 72 71 90 101 43 64 233 291 355 101 255 290 344 26 33 300 277 259 242 231 224 219 219 223 226 226 220 218 219 219 218 219 220 221 221 223 220 214 211 205 212 216 204 196 201 206 215 211 205 206 209 208 203 196 191 195 209 221 229 224 209 203 193 188 201 181 31 20 15 12
295 249 190 152 177 198 173 120 163 163 136 130 109 70 53 35 30 43 50 80 66 9 249 265 298 116 220 286 299 47 295 269 273 282 266 233 223 218 218 222 224 225 222 217 218 221 222 222 222 222 223 219 211 214 216 212 217 214 202 208 215 217 221 214 205 203 203 203 198 194 199 205 219 235 234 219 210 208 176 156 168 134 86 69 55 52
336 345 241 244 217 167 110 79 50 27 73 106 84 76 80 12 9 31 358 41 82 265 256 261 263 131 164 250 240 256 275 265 253 266 270 260 229 219 214 216 219 221 220 216 217 220 222 222 220 214 210 207 211 227 229 228 227 205 197 218 224 222 221 212 205 204 203 203 199 197 207 218 233 253 247 225 213 208 162 140 135 117 99 93 87 89
320 258 277 305 241 163 114 90 49 6 30 82 85 89 97 20 11 37 315 8 138 242 264 331 338 158 211 230 225 259 280 280 270 271 275 279 267 237 213 207 210 213 215 216 217 220 223 220 209 202 211 218 228 237 234 231 229 206 197 207 206 208 213 207 206 207 205 206 205 204 215 228 238 252 246 224 213 194 167 140 120 109 100 101 103 107
300 300 319 330 274 189 133 127 155 292 55 129 133 123 123 100 83 202 267 313 238 246 305 344 346 277 266 264 233 266 291 300 305 321 309 285 269 231 199 190 191 197 206 212 214 218 220 213 199 204 219 227 231 234 233 234 229 211 201 200 197 200 206 204 205 211 211 212 212 211 218 228 235 243 240 220 211 191 171 152 128 118 111 109 108 109
174 305 276 197 222 206 155 152 161 153 136 171 160 127 140 152 140 188 215 177 203 237 331 329 324 153 207 271 280 284 315 336 356 63 75 79 99 115 126 138 150 162 173 182 187 194 200 204 207 213 221 228 230 231 233 233 217 200 194 200 204 206 208 205 204 211 218 220 217 213 213 221 227 236 242 218 207 194 174 164 146 137 128 120 116 113
146 235 256 261 244 157 167 182 139 115 99 250 141 110 148 181 141 128 173 170 164 145 59 272 230 200 209 277 303 318 1 16 41 84 86 84 95 104 104 101 102 103 109 124 134 118 68 29 237 225 225 227 230 234 236 227 201 190 192 207 213 213 213 212 209 213 221 224 221 213 211 219 223 230 237 214 204 198 181 175 165 154 150 143 134 125
131 250 282 315 314 115 158 186 146 133 167 184 130 162 213 169 118 109 134 27 83 126 202 247 265 301 335 316 316 358 26 17 22 71 92 96 98 99 99 100 98 94 89 83 101 114 76 29 10 284 248 240 240 244 244 230 196 189 214 219 211 216 219 218 217 216 218 222 222 215 213 219 222 226 226 206 203 201 189 185 180 171 171 169 161 155
146 251 298 7 120 347 50 110 76 55 123 127 175 196 184 108 95 105 114 20 52 144 257 327 264 283 4 173 297 353 47 359 345 4 87 108 108 107 109 108 102 99 94 58 348 330 257 343 15 3 304 261 253 254 252 233 193 190 227 220 207 219 225 223 221 219 220 224 224 217 212 217 222 224 213 201 203 206 201 198 196 189 186 185 188 187
123 214 294 287 178 319 18 81 62 359 48 115 168 157 113 124 131 95 122 127 117 161 269 326 316 238 202 215 245 209 197 204 253 341 16 95 115 123 131 130 133 157 179 205 223 230 231 225 24 360 318 306 252 237 241 225 194 196 221 207 204 221 229 223 221 222 226 231 229 223 218 221 225 220 207 200 204 209 208 209 211 207 201 197 198 196
99 134 268 283 268 329 11 62 154 311 12 51 91 68 45 128 154 156 141 148 146 153 207 294 360 260 226 213 204 209 215 209 203 188 48 71 122 136 151 149 148 160 173 187 194 194 191 185 167 264 281 315 320 226 217 199 190 199 204 197 207 226 226 218 218 223 230 235 232 227 223 226 227 217 208 205 204 206 206 207 211 214 214 211 207 202
79 117 209 288 333 32 56 11 195 186 140 77 71 65 28 75 121 142 91 87 126 139 171 170 244 266 252 208 200 223 223 204 190 172 148 126 126 138 150 149 145 147 157 171 178 174 163 155 150 167 215 256 210 156 165 162 167 181 191 198 211 221 216 211 215 221 227 234 233 225 222 229 230 218 210 211 209 207 204 201 201 207 214 219 220 218
124 129 173 289 5 63 197 290 274 216 173 140 125 150 146 127 127 123 108 301 106 122 163 160 189 265 264 211 223 238 211 184 174 161 150 134 129 136 141 145 148 144 141 146 147 145 142 135 135 146 161 164 138 132 141 140 144 161 178 194 201 201 200 204 212 219 225 231 232 225 222 228 232 224 217 217 215 212 213 209 206 208 211 217 223 225
151 108 103 72 22 214 254 294 327 316 113 107 95 105 122 117 112 123 169 216 112 94 143 124 133 266 265 258 262 248 175 150 162 166 153 140 137 139 141 141 142 137 132 130 130 132 133 133 138 143 148 151 146 151 164 154 151 163 171 185 191 187 188 199 212 220 225 228 230 227 223 224 229 226 222 221 217 215 217 215 214 218 215 216 222 228
95 88 82 31 315 313 305 330 355 12 60 70 46 51 83 41 82 137 172 171 133 149 140 95 145 263 276 302 299 225 139 125 143 162 152 143 140 141 143 140 137 135 132 131 130 128 127 126 127 130 136 143 148 157 168 167 169 177 179 187 192 192 193 202 214 222 227 229 230 230 227 224 225 226 225 224 220 220 221 219 222 229 224 220 228 239
112 78 100 100 21 348 337 342 345 351 33 68 32 1 40 56 61 103 131 80 109 186 154 129 202 252 278 330 3 51 101 100 108 138 148 144 139 138 139 138 138 138 136 135 134 134 133 128 125 129 134 136 139 148 156 160 169 181 190 194 195 197 201 207 214 221 226 228 228 230 230 228 227 227 227 226 224 224 224 225 233 240 235 230 237 248
128 82 115 127 142 174 186 231 250 266 11 50 30 8 36 75 79 141 120 87 135 196 142 140 204 252 304 358 16 24 49 59 72 122 142 142 138 139 140 143 146 146 144 146 145 143 139 134 133 134 133 132 135 143 153 164 175 182 191 196 193 188 191 201 207 211 214 218 221 225 230 232 230 228 229 230 231 227 223 227 238 246 242 240 245 250
112 57 76 125 148 179 184 218 226 146 95 87 41 16 12 27 51 83 89 110 182 168 171 220 194 167 346 358 3 357 6 19 18 35 64 89 125 144 149 152 154 152 151 153 151 148 143 138 138 137 136 135 133 140 156 173 183 190 190 182 172 164 163 175 186 192 199 207 214 220 224 228 227 226 229 231 228 223 222 228 238 246 247 248 250 251
104 48 19 87 82 147 162 242 277 95 107 138 115 47 350 360 44 71 83 223 154 125 222 263 175 125 359 344 349 340 344 354 6 15 23 37 66 150 166 164 163 160 161 161 159 157 151 145 142 139 141 141 136 140 159 180 189 191 178 158 149 146 145 152 165 177 191 201 209 212 213 216 219 221 225 225 219 218 225 234 242 250 256 257 255 255
114 70 360 78 39 31 61 24 4 59 67 67 84 63 337 12 52 83 129 269 137 138 208 217 103 90 323 333 337 327 332 353 27 34 44 56 54 141 183 178 174 170 170 168 166 164 160 156 153 150 151 152 151 156 165 174 179 174 162 150 144 141 141 146 155 164 177 191 203 210 213 218 224 227 229 230 223 222 234 244 249 255 260 263 263 262
106 83 115 112 60 28 31 24 29 71 65 23 15 12 22 70 81 98 108 317 33 135 166 125 96 67 320 308 324 340 28 63 62 56 56 57 58 106 170 181 183 179 177 173 169 168 168 166 164 163 162 160 158 159 159 162 164 162 159 150 144 146 148 150 157 163 168 182 200 212 219 224 228 230 234 240 242 240 243 249 253 255 257 259 262 260
78 117 159 106 77 7 358 31 52 92 102 77 356 356 36 86 84 70 47 5 48 90 107 101 89 64 360 353 14 44 65 67 60 53 50 52 62 98 126 142 160 170 177 178 176 174 173 173 171 169 167 165 162 157 153 153 153 155 158 150 144 149 147 146 154 158 161 173 192 208 216 220 224 228 233 236 238 236 233 235 236 233 231 229 225 224
62 119 138 84 99 261 314 95 118 106 104 109 18 2 10 59 95 75 42 18 58 140 132 101 95 102 329 11 48 60 64 63 56 49 50 54 63 80 93 102 113 124 146 175 183 180 176 174 172 170 169 168 167 164 160 155 149 150 151 144 147 151 144 143 148 149 150 153 161 172 180 188 194 197 199 195 189 188 186 188 191 188 187 189 189 195
69 133 147 108 126 186 278 98 123 100 97 138 273 337 5 78 120 98 47 13 1 131 146 141 156 193 251 42 71 64 60 62 58 52 52 55 62 71 79 85 91 95 98 111 144 162 166 168 168 169 170 168 166 165 165 164 162 164 162 156 158 158 154 160 167 165 161 154 154 158 159 162 168 169 170 167 165 168 170 172 178 180 181 181 175 177
48 104 140 124 125 170 257 22 68 96 153 234 274 271 192 143 127 104 71 5 355 35 117 135 132 129 93 85 91 84 75 71 65 60 58 59 63 69 74 78 83 84 84 84 91 101 112 131 145 152 157 159 162 162 162 164 166 167 170 172 177 180 184 197 198 194 189 176 169 171 171 175 178 173 170 168 162 162 161 166 177 182 191 209 226 242
74 76 121 98 103 148 206 51 87 186 224 252 310 323 124 122 116 106 90 42 15 28 63 86 91 105 108 102 97 94 89 78 69 63 60 60 63 68 71 74 80 84 80 76 78 83 85 93 109 125 134 138 146 155 155 152 151 152 155 162 180 198 213 227 223 215 212 205 197 191 184 182 182 180 179 177 174 172 169 173 187 198 212 227 237 244
120 115 127 78 89 141 102 86 153 225 266 285 323 341 69 92 81 86 71 29 12 12 48 85 81 88 112 109 101 99 94 79 66 59 58 61 63 63 65 67 69 71 67 59 55 60 65 67 74 86 109 124 137 151 154 157 167 168 162 161 170 176 179 202 212 206 204 208 207 201 193 187 186 185 184 183 184 185 184 189 196 202 210 214 216 219
119 125 116 79 99 140 115 120 186 354 343 275 286 340 102 329 318 115 104 23 343 352 56 110 77 47 88 108 113 119 101 77 61 47 49 59 62 62 63 63 62 61 58 54 50 47 46 47 55 53 34 230 202 186 177 194 212 212 200 187 179 173 170 179 197 196 189 187 186 188 196 204 204 195 188 186 187 187 190 195 200 205 209 211 215 222
82 127 160 153 164 112 100 97 41 20 291 233 235 265 2 334 247 165 117 36 323 351 63 119 91 52 62 66 98 170 117 66 45 20 35 50 56 57 60 59 57 56 53 53 55 53 54 61 66 55 34 304 210 210 216 217 215 215 216 213 209 210 209 206 215 223 224 226 235 246 248 246 239 220 200 192 191 193 198 204 207 212 216 222 233 244
41 44 103 121 136 112 112 131 162 184 224 239 248 292 336 332 230 146 85 338 274 1 61 100 88 69 66 61 64 105 99 71 30 344 26 37 36 38 42 42 41 41 38 37 39 43 46 48 45 31 18 26 174 227 237 238 234 225 220 222 225 227 225 224 233 239 239 244 248 247 245 243 240 233 224 220 220 221 223 226 230 235 242 249 257 263
23 16 50 99 128 117 120 138 176 197 227 255 267 310 335 327 173 116 95 251 257 49 71 87 82 71 66 65 65 72 88 118 167 3 21 23 14 11 9 7 7 4 360 360 358 1 11 11 360 343 334 328 320 311 285 262 254 247 242 240 235 234 238 244 246 237 230 236 245 245 243 244 243 241 242 245 246 244 244 247 250 254 260 265 270 274
17 13 51 114 104 71 105 115 21 255 250 284 309 332 355 92 140 126 207 228 162 89 91 81 77 67 60 65 72 79 92 99 82 24 7 360 350 346 345 342 340 337 335 333 329 325 322 315 311 312 311 308 301 297 296 290 278 265 257 251 245 243 249 256 257 248 241 244 249 250 251 253 254 253 251 253 255 254 255 258 259 261 267 271 274 279
15 6 24 81 63 51 113 110 74 243 302 338 327 339 14 93 173 211 200 165 99 100 92 74 72 63 53 58 66 74 79 56 20 347 338 338 333 331 329 324 319 316 313 311 310 310 305 299 295 293 291 293 292 290 291 293 287 272 262 258 255 252 252 252 253 253 252 249 247 246 249 254 256 257 255 254 257 258 259 261 263 265 270 273 277 285
53 49 36 46 36 61 86 64 100 180 321 341 330 329 7 68 162 146 119 110 94 86 74 65 64 52 40 39 38 33 20 1 346 332 329 328 324 325 323 318 315 312 307 305 304 302 300 297 293 288 286 286 284 285 288 290 288 281 272 268 267 264 260 256 252 250 251 249 244 243 246 249 251 254 256 256 258 261 263 264 267 269 272 274 279 287
23 86 150 230 340 84 115 71 151 202 324 6 55 104 79 111 129 113 97 91 75 57 41 36 33 22 13 8 359 351 344 339 332 326 323 319 317 318 316 313 313 310 307 306 305 303 301 299 295 291 288 285 283 281 280 281 284 284 281 277 273 267 264 263 260 255 251 248 244 244 245 247 249 252 255 256 258 261 264 265 266 267 269 273 279 285
16 98 120 114 35 82 109 132 161 179 50 66 88 102 109 117 118 104 96 90 65 29 358 360 356 341 336 334 329 330 331 328 323 321 318 315 313 313 312 311 310 308 306 305 303 302 301 298 297 295 291 289 287 283 278 275 275 276 277 278 277 271 265 262 260 258 255 251 249 248 248 247 248 250 252 254 256 259 261 262 263 265 269 273 277 280
127 112 99 97 105 75 71 101 141 147 116 108 111 114 117 123 125 122 125 136 155 234 285 314 320 319 322 320 319 324 326 321 319 319 316 313 313 312 311 309 308 306 305 304 302 301 299 296 295 294 291 290 289 286 281 276 271 269 269 270 270 266 261 257 254 253 252 248 247 249 250 248 247 247 247 248 250 252 253 256 261 265 269 272 273 275
324 71 80 97 113 94 92 147 158 141 134 135 135 136 136 137 142 147 153 165 176 193 244 282 300 308 311 312 314 316 318 317 316 314 312 311 310 310 308 307 305 303 302 301 301 300 298 296 294 292 290 289 287 286 283 278 273 270 267 265 262 258 255 252 247 244 244 243 243 245 245 245 244 244 244 245 247 249 252 254 258 261 263 264 266 268
349 51 84 96 83 96 184 178 143 131 145 148 142 146 150 148 151 159 161 164 188 228 272 290 299 305 307 310 312 311 313 313 312 310 309 308 307 306 304 302 300 299 297 297 297 295 294 292 291 289 289 287 287 286 282 279 276 274 271 267 261 257 255 253 249 245 244 244 245 244 242 242 243 245 246 248 250 252 254 255 255 256 256 258 261 264
357 45 99 96 81 72 77 153 135 126 167 183 170 164 165 162 161 188 292 311 304 303 304 302 302 305 307 308 309 309 308 308 307 306 305 304 302 302 300 298 297 297 295 294 293 291 290 288 287 286 285 284 283 283 281 278 276 274 274 273 268 262 258 256 253 252 251 250 251 252 250 248 249 251 253 255 256 258 260 261 261 261 263 264 266 268
52 115 127 85 96 119 237 177 166 160 241 207 195 190 192 201 238 289 294 292 291 288 289 292 294 299 303 303 305 306 306 306 306 304 302 303 303 302 300 300 298 297 296 295 293 291 289 287 286 284 282 281 280 278 275 275 275 275 275 276 275 271 265 258 255 254 255 255 257 258 256 255 255 256 258 260 262 264 264 265 266 267 269 270 270 270
82 166 162 121 143 210 199 174 177 186 205 194 197 200 205 227 270 286 279 283 287 286 290 298 302 305 307 308 308 309 309 309 309 307 307 308 308 306 304 303 300 298 297 295 293 292 291 289 288 285 284 283 281 278 273 268 268 272 275 274 273 273 268 261 255 252 251 255 258 258 258 260 261 261 262 264 264 265 265 266 267 269 270 271 269 269
Height
1468 1471 1473 1473 1473 1472 1471 1473 1474 1475 1476 1476 1478 1480 1480 1481 1476 1470 1466 1465 1465 1466 1467 1469 1467 1466 1469 1471 1470 1470 1472 1473 1475 1478 1479 1480 1483 1484 1485 1486 1487 1488 1491 1493 1495 1497 1499 1501 1503 1504 1505 1507 1508 1509 1510 1511 1514 1516 1517 1520 1522 1524 1525 1525 1526 1526 1527 1528 1529 1530 1531 1531 1533 1534 1535 1535 1536 1536 1536 1537 1537 1537 1537 1538 1538 1539
1468 1472 1472 1469 1470 1470 1471 1475 1476 1476 1476 1476 1479 1479 1479 1480 1475 1467 1465 1466 1464 1464 1468 1472 1468 1467 1470 1472 1472 1471 1472 1473 1473 1475 1477 1479 1482 1483 1484 1485 1486 1488 1490 1493 1494 1496 1498 1500 1502 1503 1505 1506 1507 1508 1508 1509 1512 1515 1517 1519 1521 1523 1524 1524 1525 1526 1527 1528 1529 1529 1531 1532 1533 1534 1534 1535 1536 1536 1536 1537 1537 1537 1537 1538 1539 1539
1472 1471 1467 1466 1470 1472 1473 1476 1475 1475 1476 1477 1481 1480 1477 1477 1474 1468 1465 1467 1466 1463 1468 1472 1468 1468 1471 1472 1473 1473 1473 1473 1474 1475 1477 1479 1481 1482 1483 1484 1486 1487 1489 1491 1493 1495 1497 1499 1501 1502 1504 1505 1505 1506 1507 1508 1511 1514 1516 1518 1519 1521 1523 1524 1525 1526 1527 1528 1528 1529 1530 1531 1532 1533 1534 1535 1536 1536 1536 1536 1537 1537 1538 1538 1539 1540
1474 1469 1464 1467 1471 1471 1472 1475 1475 1475 1476 1477 1478 1478 1475 1474 1474 1470 1465 1467 1467 1466 1468 1469 1468 1469 1471 1472 1473 1474 1475 1475 1476 1477 1479 1481 1481 1481 1482 1483 1485 1486 1487 1490 1491 1494 1495 1497 1499 1500 1502 1503 1504 1505 1506 1508 1510 1512 1514 1516 1518 1520 1523 1524 1525 1526 1527 1528 1528 1529 1530 1531 1532 1533 1534 1534 1535 1535 1536 1536 1537 1537 1538 1539 1539 1540
1469 1465 1464 1467 1469 1469 1470 1473 1475 1475 1476 1476 1475 1475 1472 1469 1470 1469 1467 1468 1468 1469 1470 1469 1470 1471 1470 1472 1474 1474 1476 1476 1476 1478 1479 1481 1482 1482 1484 1484 1485 1485 1486 1488 1490 1492 1494 1495 1497 1499 1500 1501 1503 1504 1505 1506 1509 1511 1513 1515 1517 1520 1522 1524 1525 1526 1527 1528 1528 1529 1530 1531 1532 1533 1534 1535 1535 1535 1536 1536 1537 1538 1538 1539 1540 1541
1465 1463 1464 1466 1467 1468 1468 1470 1471 1472 1474 1474 1471 1470 1468 1465 1466 1467 1468 1469 1469 1471 1473 1472 1477 1479 1471 1469 1474 1475 1476 1477 1477 1478 1478 1480 1482 1482 1483 1483 1484 1485 1486 1488 1490 1491 1493 1494 1496 1498 1499 1500 1501 1503 1504 1506 1508 1510 1512 1514 1517 1520 1523 1524 1525 1527 1527 1528 1528 1529 1530 1531 1532 1533 1534 1535 1536 1536 1537 1537 1538 1538 1538 1539 1540 1541
1463 1462 1463 1464 1465 1468 1468 1468 1467 1469 1474 1474 1468 1466 1467 1466 1465 1466 1466 1468 1472 1475 1476 1475 1478 1484 1476 1468 1473 1477 1476 1477 1478 1477 1478 1479 1480 1481 1481 1482 1482 1483 1485 1486 1489 1491 1492 1494 1495 1496 1497 1499 1500 1503 1505 1507 1510 1512 1513 1514 1517 1520 1523 1524 1525 1527 1528 1528 1529 1530 1531 1532 1533 1534 1535 1536 1536 1537 1538 1538 1538 1539 1539 1539 1540 1541
1460 1461 1463 1462 1463 1466 1467 1464 1464 1466 1470 1470 1466 1465 1466 1464 1464 1466 1465 1468 1474 1475 1476 1476 1474 1481 1482 1473 1474 1478 1475 1476 1478 1477 1477 1477 1478 1479 1479 1481 1481 1482 1483 1485 1487 1489 1491 1492 1494 1495 1497 1499 1501 1504 1507 1509 1511 1511 1512 1513 1517 1520 1522 1524 1525 1527 1528 1529 1530 1531 1532 1533 1533 1534 1535 1536 1537 1538 1538 1539 1539 1539 1539 1540 1541 1541
1458 1459 1459 1459 1461 1463 1461 1458 1460 1462 1463 1463 1465 1466 1466 1464 1466 1468 1467 1469 1477 1477 1475 1478 1477 1482 1486 1478 1475 1478 1476 1475 1475 1475 1476 1476 1476 1477 1478 1479 1480 1481 1482 1484 1486 1488 1489 1491 1493 1495 1498 1501 1504 1506 1508 1509 1511 1512 1515 1518 1520 1520 1521 1522 1524 1526 1528 1529 1531 1532 1533 1533 1534 1534 1535 1537 1537 1538 1539 1539 1539 1540 1540 1540 1541 1541
1456 1456 1455 1457 1458 1458 1455 1456 1459 1458 1458 1461 1465 1468 1467 1470 1471 1471 1471 1470 1476 1479 1478 1482 1483 1483 1487 1483 1478 1478 1477 1476 1475 1474 1475 1474 1474 1475 1476 1477 1479 1480 1482 1483 1485 1487 1489 1491 1493 1496 1500 1502 1504 1505 1507 1511 1514 1517 1521 1525 1523 1521 1521 1522 1523 1525 1527 1529 1531 1532 1533 1533 1534 1535 1536 1537 1538 1539 1539 1540 1540 1540 1541 1541 1541 1541
1454 1455 1455 1454 1454 1453 1453 1457 1460 1459 1459 1461 1463 1466 1467 1471 1471 1473 1477 1474 1477 1485 1484 1486 1486 1482 1486 1488 1484 1481 1479 1479 1478 1474 1472 1473 1473 1472 1474 1475 1477 1479 1481 1482 1484 1486 1488 1491 1494 1498 1499 1500 1502 1504 1509 1515 1519 1521 1524 1524 1522 1522 1522 1522 1524 1526 1527 1529 1531 1532 1533 1534 1535 1535 1536 1537 1538 1539 1539 1540 1540 1541 1541 1541 1542 1542
1455 1454 1454 1451 1450 1452 1452 1456 1461 1461 1462 1461 1462 1465 1470 1475 1476 1477 1480 1478 1484 1491 1486 1488 1490 1483 1484 1488 1487 1484 1480 1480 1480 1474 1471 1473 1473 1472 1472 1473 1475 1478 1480 1482 1483 1485 1487 1491 1495 1497 1497 1498 1502 1506 1511 1514 1517 1520 1522 1522 1521 1522 1523 1524 1525 1527 1528 1530 1531 1532 1533 1535 1536 1536 1537 1537 1538 1539 1539 1540 1540 1541 1541 1542 1542 1542
1455 1452 1453 1450 1449 1450 1451 1457 1462 1462 1462 1462 1463 1468 1476 1484 1487 1487 1490 1491 1492 1490 1486 1490 1490 1483 1482 1483 1484 1484 1480 1478 1479 1476 1472 1473 1473 1472 1471 1472 1474 1477 1479 1481 1483 1484 1487 1491 1494 1495 1495 1499 1502 1505 1508 1510 1512 1515 1517 1518 1518 1520 1523 1524 1525 1527 1528 1530 1531 1532 1534 1535 1536 1536 1537 1537 1538 1539 1539 1540 1540 1541 1542 1542 1542 1543
1457 1454 1451 1449 1449 1448 1449 1455 1460 1461 1461 1461 1463 1467 1476 1488 1495 1499 1505 1506 1499 1490 1488 1492 1488 1484 1484 1481 1481 1482 1480 1478 1477 1475 1473 1471 1471 1472 1473 1474 1475 1478 1480 1481 1484 1486 1489 1491 1492 1493 1495 1498 1500 1501 1504 1506 1508 1510 1514 1517 1517 1519 1522 1523 1524 1526 1527 1529 1530 1531 1533 1534 1535 1536 1537 1538 1538 1539 1540 1540 1540 1541 1542 1542 1543 1543
1464 1461 1452 1448 1449 1447 1447 1449 1452 1455 1459 1462 1464 1464 1470 1477 1484 1493 1498 1496 1494 1492 1492 1492 1488 1487 1485 1481 1481 1480 1479 1479 1477 1475 1473 1471 1471 1471 1474 1477 1478 1479 1480 1482 1485 1487 1491 1493 1493 1494 1495 1496 1498 1499 1501 1504 1506 1508 1513 1517 1517 1519 1521 1522 1524 1525 1526 1527 1528 1529 1530 1532 1533 1535 1536 1537 1539 1539 1540 1540 1541 1541 1542 1543 1544 1544
1468 1462 1449 1447 1448 1446 1447 1447 1448 1452 1459 1467 1468 1465 1467 1466 1469 1487 1497 1493 1492 1493 1493 1493 1491 1489 1485 1481 1482 1481 1479 1479 1478 1476 1474 1473 1473 1472 1473 1477 1479 1481 1482 1483 1484 1486 1491 1495 1496 1496 1496 1496 1497 1497 1498 1501 1504 1509 1513 1515 1516 1518 1521 1522 1522 1522 1523 1524 1526 1527 1529 1531 1532 1534 1535 1537 1538 1539 1540 1541 1541 1542 1543 1544 1544 1545
1466 1459 1448 1448 1447 1445 1447 1447 1447 1450 1457 1467 1468 1464 1466 1464 1464 1482 1498 1501 1496 1491 1495 1499 1493 1489 1487 1482 1481 1481 1480 1480 1479 1477 1475 1474 1474 1474 1474 1477 1479 1482 1484 1488 1488 1486 1489 1494 1497 1499 1498 1497 1497 1497 1498 1499 1504 1510 1512 1513 1515 1517 1518 1519 1519 1520 1521 1523 1525 1527 1528 1530 1532 1533 1535 1536 1538 1539 1540 1541 1541 1542 1543 1544 1545 1546
1459 1456 1450 1449 1448 1446 1447 1447 1447 1449 1452 1460 1463 1461 1464 1468 1468 1473 1486 1499 1499 1493 1497 1502 1497 1493 1491 1486 1482 1481 1481 1481 1481 1479 1477 1476 1474 1475 1476 1477 1479 1481 1484 1490 1492 1490 1489 1491 1494 1498 1500 1498 1497 1498 1498 1499 1504 1509 1510 1511 1513 1514 1514 1515 1517 1519 1520 1522 1524 1526 1527 1529 1531 1532 1534 1536 1537 1539 1540 1541 1542 1543 1544 1545 1546 1547
1455 1457 1454 1450 1450 1449 1447 1448 1450 1452 1452 1453 1455 1456 1461 1467 1470 1474 1481 1490 1495 1499 1500 1500 1503 1499 1489 1484 1481 1480 1481 1481 1481 1480 1479 1477 1476 1476 1477 1476 1476 1479 1483 1489 1491 1490 1490 1490 1491 1497 1500 1499 1498 1498 1498 1500 1503 1505 1508 1510 1511 1512 1513 1515 1516 1518 1519 1520 1523 1525 1527 1529 1530 1532 1533 1535 1536 1538 1539 1541 1542 1543 1544 1545 1546 1547
1455 1458 1457 1452 1451 1451 1449 1451 1454 1455 1455 1454 1454 1458 1461 1464 1469 1473 1478 1480 1484 1498 1503 1498 1500 1494 1482 1480 1478 1476 1479 1480 1480 1481 1479 1479 1478 1477 1478 1477 1476 1478 1483 1487 1489 1489 1489 1490 1491 1495 1499 1499 1498 1498 1498 1500 1502 1504 1506 1508 1509 1511 1512 1513 1515 1516 1518 1519 1521 1524 1526 1528 1529 1531 1532 1534 1536 1537 1538 1540 1542 1543 1544 1545 1546 1547
1454 1458 1459 1454 1452 1453 1455 1457 1457 1455 1456 1456 1457 1460 1462 1467 1472 1472 1479 1483 1480 1488 1497 1497 1496 1488 1478 1479 1477 1474 1477 1479 1480 1481 1480 1480 1479 1478 1479 1479 1479 1481 1485 1487 1488 1489 1490 1490 1492 1494 1497 1499 1498 1498 1498 1499 1501 1503 1505 1506 1508 1509 1510 1511 1513 1515 1516 1518 1520 1522 1525 1527 1529 1530 1532 1533 1534 1536 1538 1540 1541 1543 1544 1545 1546 1547
1451 1456 1458 1457 1456 1458 1459 1460 1459 1457 1455 1454 1457 1462 1464 1467 1470 1470 1480 1489 1484 1483 1490 1491 1488 1482 1478 1479 1477 1476 1478 1478 1481 1482 1481 1482 1481 1481 1481 1482 1483 1485 1486 1488 1489 1490 1491 1492 1493 1495 1497 1498 1498 1498 1498 1499 1501 1502 1504 1505 1506 1508 1509 1510 1512 1513 1515 1517 1518 1521 1523 1526 1528 1529 1530 1532 1533 1536 1537 1539 1541 1542 1543 1544 1545 1546
1447 1451 1457 1461 1462 1462 1461 1459 1460 1459 1457 1456 1459 1466 1469 1466 1465 1465 1474 1482 1484 1488 1493 1489 1483 1479 1479 1480 1478 1477 1478 1478 1480 1482 1482 1483 1482 1483 1484 1484 1486 1487 1488 1490 1491 1492 1493 1493 1494 1496 1496 1497 1497 1498 1498 1499 1501 1502 1503 1504 1505 1507 1508 1509 1511 1512 1514 1516 1518 1520 1522 1524 1526 1527 1529 1531 1532 1534 1536 1538 1540 1541 1542 1543 1544 1546
1447 1451 1459 1465 1465 1461 1458 1457 1459 1460 1459 1459 1463 1469 1471 1469 1468 1467 1470 1474 1478 1485 1487 1486 1486 1481 1477 1480 1478 1477 1478 1478 1480 1482 1483 1484 1484 1485 1486 1487 1488 1489 1490 1492 1492 1494 1495 1495 1496 1496 1496 1497 1498 1498 1499 1499 1501 1502 1503 1504 1505 1506 1507 1508 1510 1511 1513 1515 1517 1519 1521 1523 1525 1526 1528 1530 1531 1533 1535 1537 1538 1540 1541 1542 1543 1544
1448 1454 1459 1466 1471 1470 1465 1464 1462 1461 1462 1464 1469 1472 1472 1473 1473 1471 1474 1474 1475 1482 1482 1479 1482 1481 1478 1481 1479 1477 1479 1479 1480 1482 1483 1485 1485 1486 1487 1488 1489 1490 1491 1493 1493 1495 1496 1496 1496 1497 1497 1498 1498 1499 1500 1500 1501 1502 1502 1503 1504 1505 1506 1507 1509 1511 1512 1515 1516 1518 1520 1521 1523 1525 1527 1528 1530 1532 1534 1536 1537 1538 1540 1541 1542 1543
1451 1458 1458 1462 1471 1475 1473 1471 1467 1465 1467 1469 1471 1471 1472 1475 1473 1469 1472 1471 1472 1484 1485 1476 1476 1479 1480 1482 1481 1481 1482 1481 1482 1484 1485 1487 1487 1487 1488 1489 1490 1492 1492 1493 1494 1495 1496 1496 1497 1497 1498 1498 1499 1500 1500 1501 1502 1502 1502 1503 1503 1505 1506 1507 1509 1510 1512 1514 1516 1517 1519 1520 1522 1524 1526 1527 1528 1530 1533 1534 1535 1537 1538 1539 1540 1541
1454 1464 1463 1459 1462 1465 1467 1469 1469 1466 1468 1471 1470 1467 1471 1476 1475 1471 1472 1470 1473 1483 1484 1477 1477 1479 1482 1486 1486 1485 1486 1485 1486 1486 1486 1488 1487 1488 1489 1490 1491 1493 1493 1494 1495 1496 1496 1497 1497 1498 1498 1498 1499 1501 1502 1503 1503 1503 1503 1503 1503 1505 1506 1507 1508 1510 1512 1514 1515 1516 1518 1519 1521 1523 1525 1525 1527 1529 1531 1533 1534 1535 1537 1538 1538 1539
1453 1464 1468 1465 1465 1467 1468 1470 1470 1467 1467 1470 1469 1468 1471 1475 1474 1471 1471 1474 1478 1479 1479 1482 1483 1482 1486 1492 1492 1490 1490 1489 1489 1488 1488 1488 1489 1489 1490 1491 1492 1493 1494 1495 1496 1496 1497 1497 1498 1499 1499 1499 1500 1501 1503 1504 1505 1505 1505 1504 1505 1505 1506 1507 1508 1510 1512 1514 1515 1516 1518 1519 1521 1523 1524 1524 1526 1529 1531 1532 1533 1534 1535 1536 1536 1537
1453 1464 1470 1470 1470 1472 1472 1471 1471 1470 1473 1474 1473 1473 1474 1473 1472 1471 1475 1483 1482 1474 1475 1483 1486 1487 1493 1497 1495 1494 1493 1491 1491 1491 1489 1490 1490 1491 1492 1493 1494 1494 1495 1496 1497 1498 1499 1499 1500 1501 1501 1501 1502 1503 1504 1505 1506 1506 1506 1506 1506 1506 1507 1508 1509 1510 1511 1513 1515 1516 1517 1519 1520 1522 1523 1524 1526 1529 1530 1531 1532 1532 1532 1533 1534 1534
1454 1466 1472 1471 1473 1476 1473 1473 1474 1474 1476 1479 1480 1481 1480 1478 1479 1479 1484 1490 1486 1481 1484 1487 1487 1494 1500 1498 1496 1495 1494 1492 1492 1491 1491 1491 1492 1493 1493 1494 1495 1496 1497 1498 1498 1499 1500 1501 1502 1502 1503 1504 1504 1505 1506 1506 1507 1507 1507 1507 1508 1508 1508 1509 1509 1510 1512 1513 1515 1516 1517 1519 1520 1521 1522 1523 1525 1527 1528 1529 1530 1530 1530 1531 1531 1532
1454 1466 1471 1470 1476 1481 1477 1476 1478 1476 1477 1482 1486 1488 1485 1482 1483 1485 1488 1492 1488 1488 1493 1490 1488 1497 1501 1498 1498 1496 1493 1492 1492 1493 1494 1494 1494 1494 1495 1496 1497 1497 1498 1499 1500 1501 1501 1502 1503 1503 1504 1505 1506 1506 1507 1507 1508 1508 1508 1508 1509 1509 1510 1510 1511 1511 1512 1513 1515 1516 1517 1518 1519 1520 1521 1522 1523 1525 1526 1527 1528 1528 1529 1529 1530 1531
1455 1466 1472 1470 1477 1484 1482 1480 1482 1479 1480 1483 1486 1489 1489 1485 1485 1488 1493 1495 1492 1490 1491 1488 1489 1498 1501 1498 1498 1496 1493 1494 1495 1497 1497 1497 1497 1497 1496 1497 1498 1499 1500 1501 1501 1502 1503 1503 1504 1505 1505 1506 1507 1507 1507 1508 1509 1509 1509 1509 1510 1510 1510 1511 1512 1512 1513 1514 1515 1516 1517 1518 1519 1520 1521 1522 1523 1524 1525 1526 1527 1527 1528 1529 1530 1531
1460 1463 1467 1469 1474 1481 1484 1483 1483 1481 1480 1483 1487 1492 1494 1493 1492 1493 1496 1499 1499 1495 1490 1487 1492 1500 1501 1499 1499 1498 1497 1498 1499 1500 1500 1500 1500 1499 1499 1500 1500 1501 1501 1502 1503 1503 1504 1504 1505 1506 1507 1507 1508 1508 1508 1509 1509 1509 1510 1510 1511 1511 1512 1513 1513 1514 1515 1516 1516 1517 1518 1519 1520 1520 1521 1522 1522 1523 1524 1525 1525 1526 1527 1528 1529 1530
1462 1461 1466 1469 1470 1478 1484 1484 1483 1482 1481 1486 1493 1495 1495 1494 1494 1495 1498 1501 1501 1498 1495 1494 1498 1501 1501 1500 1500 1500 1500 1501 1503 1504 1503 1503 1502 1501 1501 1502 1502 1503 1504 1504 1505 1505 1505 1505 1506 1506 1507 1508 1509 1509 1509 1509 1510 1510 1510 1511 1512 1512 1513 1514 1514 1515 1515 1516 1517 1518 1518 1519 1519 1520 1520 1521 1521 1522 1523 1523 1524 1525 1526 1527 1528 1529
1462 1463 1468 1471 1472 1479 1485 1483 1481 1484 1488 1493 1498 1496 1494 1496 1496 1497 1501 1504 1502 1500 1500 1500 1501 1501 1501 1501 1501 1501 1502 1504 1504 1504 1504 1504 1504 1504 1503 1504 1504 1506 1507 1507 1507 1507 1507 1507 1507 1507 1508 1509 1509 1510 1510 1511 1511 1511 1511 1512 1512 1513 1513 1514 1515 1515 1516 1516 1517 1517 1518 1519 1519 1520 1520 1521 1521 1522 1522 1523 1524 1525 1526 1527 1528 1529
1461 1463 1468 1474 1478 1481 1482 1480 1482 1489 1496 1498 1498 1497 1496 1497 1497 1494 1496 1501 1503 1502 1502 1502 1502 1502 1502 1502 1502 1502 1503 1503 1503 1504 1506 1506 1506 1506 1506 1506 1507 1507 1508 1508 1509 1508 1509 1509 1509 1510 1510 1511 1511 1511 1512 1513 1513 1513 1512 1512 1512 1513 1513 1514 1515 1516 1516 1516 1517 1518 1518 1519 1520 1520 1521 1521 1522 1522 1523 1524 1525 1526 1527 1528 1528 1529
1461 1462 1464 1472 1480 1483 1486 1492 1498 1500 1500 1499 1497 1498 1498 1498 1498 1496 1497 1503 1505 1503 1503 1503 1503 1503 1502 1501 1502 1503 1503 1502 1503 1506 1508 1508 1508 1508 1508 1508 1509 1509 1510 1510 1509 1509 1509 1509 1510 1510 1511 1511 1512 1512 1513 1514 1514 1514 1514 1513 1513 1513 1513 1514 1515 1517 1517 1517 1518 1518 1519 1520 1520 1521 1521 1521 1522 1523 1523 1524 1525 1525 1526 1527 1528 1528
1462 1463 1462 1467 1480 1488 1490 1497 1504 1500 1496 1496 1498 1499 1499 1498 1499 1497 1498 1503 1505 1503 1503 1503 1503 1503 1502 1501 1502 1502 1502 1503 1507 1510 1510 1510 1510 1510 1510 1511 1511 1511 1511 1511 1511 1511 1510 1510 1510 1511 1511 1512 1511 1512 1513 1513 1514 1514 1514 1513 1513 1514 1514 1514 1515 1517 1518 1518 1519 1519 1520 1521 1521 1521 1521 1521 1522 1522 1523 1524 1524 1525 1525 1526 1527 1527
1464 1467 1466 1465 1477 1485 1481 1483 1493 1494 1493 1498 1500 1499 1498 1497 1497 1496 1497 1501 1504 1504 1504 1504 1503 1504 1503 1502 1502 1501 1502 1507 1512 1512 1511 1510 1511 1511 1511 1512 1512 1512 1513 1513 1513 1512 1512 1512 1512 1512 1512 1512 1512 1512 1512 1513 1513 1513 1513 1514 1514 1514 1515 1515 1515 1517 1518 1519 1519 1520 1520 1520 1521 1521 1521 1521 1521 1522 1522 1523 1523 1523 1524 1525 1525 1526
1468 1471 1471 1469 1476 1482 1478 1480 1492 1498 1499 1501 1501 1498 1497 1496 1495 1496 1497 1500 1505 1506 1505 1504 1504 1504 1504 1503 1503 1503 1504 1508 1512 1512 1511 1511 1511 1511 1511 1511 1512 1512 1512 1513 1513 1513 1513 1513 1513 1513 1513 1513 1513 1513 1513 1512 1512 1512 1512 1513 1513 1514 1514 1515 1515 1516 1517 1517 1518 1518 1519 1519 1519 1519 1520 1520 1520 1520 1521 1521 1521 1522 1522 1523 1524 1524
1478 1479 1480 1480 1483 1485 1483 1486 1497 1502 1502 1501 1500 1498 1496 1495 1495 1497 1498 1502 1506 1507 1506 1506 1506 1505 1506 1505 1504 1505 1507 1509 1510 1511 1511 1511 1511 1511 1511 1511 1511 1512 1512 1512 1512 1512 1513 1513 1513 1513 1513 1513 1513 1513 1513 1513 1512 1512 1512 1512 1512 1513 1513 1514 1514 1515 1515 1516 1516 1516 1516 1517 1517 1518 1518 1519 1519 1519 1519 1520 1520 1520 1521 1522 1522 1523
1485 1486 1488 1489 1490 1492 1492 1492 1497 1502 1502 1500 1499 1498 1495 1495 1498 1501 1503 1506 1507 1507 1507 1508 1507 1507 1507 1507 1507 1508 1509 1509 1510 1510 1510 1510 1510 1510 1510 1510 1511 1511 1511 1511 1511 1511 1511 1512 1512 1512 1513 1513 1513 1512 1512 1512 1512 1512 1512 1511 1511 1511 1512 1512 1512 1512 1513 1513 1514 1514 1514 1514 1515 1515 1516 1517 1517 1517 1517 1518 1519 1519 1520 1520 1520 1521
1489 1490 1493 1495 1495 1495 1496 1495 1496 1500 1502 1500 1498 1498 1498 1499 1502 1505 1506 1507 1507 1507 1508 1508 1508 1509 1509 1509 1509 1509 1509 1509 1509 1509 1509 1510 1509 1509 1509 1509 1509 1509 1509 1509 1509 1509 1509 1509 1509 1510 1510 1511 1511 1511 1510 1510 1510 1510 1510 1510 1510 1510 1510 1510 1510 1510 1510 1510 1511 1511 1511 1512 1512 1513 1513 1514 1514 1515 1515 1516 1517 1517 1518 1518 1518 1518
1491 1491 1493 1497 1497 1494 1494 1498 1501 1503 1503 1501 1498 1500 1502 1503 1505 1506 1507 1507 1507 1508 1508 1509 1509 1510 1510 1510 1510 1509 1509 1509 1508 1508 1509 1508 1508 1508 1508 1507 1507 1506 1506 1506 1506 1506 1506 1506 1506 1506 1507 1507 1508 1508 1508 1507 1507 1507 1507 1507 1508 1507 1507 1507 1507 1507 1507 1507 1508 1508 1508 1509 1509 1510 1511 1511 1512 1512 1513 1513 1514 1515 1515 1515 1516 1516
1493 1492 1491 1496 1500 1498 1497 1502 1505 1505 1505 1503 1501 1502 1505 1505 1506 1507 1507 1508 1508 1509 1509 1510 1510 1510 1510 1510 1510 1509 1509 1508 1508 1508 1507 1506 1506 1506 1506 1506 1506 1505 1504 1504 1504 1504 1503 1503 1503 1503 1503 1504 1504 1504 1505 1504 1504 1504 1504 1505 1505 1505 1504 1504 1504 1504 1504 1505 1505 1505 1506 1506 1506 1507 1508 1508 1509 1509 1510 1510 1511 1512 1512 1512 1513 1513
1495 1493 1493 1497 1501 1502 1502 1504 1506 1505 1505 1505 1504 1505 1505 1506 1507 1507 1508 1508 1509 1509 1510 1510 1510 1510 1510 1509 1509 1509 1508 1507 1506 1506 1505 1505 1505 1504 1504 1504 1504 1503 1502 1502 1501 1501 1501 1500 1500 1499 1499 1499 1500 1500 1501 1501 1501 1501 1501 1502 1502 1502 1501 1501 1501 1501 1501 1501 1502 1502 1502 1503 1503 1504 1504 1505 1506 1506 1507 1507 1508 1508 1509 1509 1510 1510
1494 1493 1495 1498 1501 1502 1504 1506 1506 1506 1506 1506 1505 1506 1506 1506 1507 1508 1508 1509 1509 1509 1510 1510 1509 1510 1509 1509 1508 1508 1507 1506 1505 1505 1504 1503 1502 1502 1502 1501 1500 1500 1500 1499 1498 1498 1497 1497 1496 1496 1495 1495 1496 1497 1497 1497 1497 1497 1497 1498 1499 1499 1498 1498 1497 1497 1498 1498 1498 1499 1499 1500 1500 1501 1502 1502 1503 1503 1504 1504 1505 1505 1506 1506 1507 1507
1495 1494 1496 1500 1502 1502 1504 1506 1506 1506 1506 1506 1506 1506 1507 1507 1508 1508 1508 1509 1509 1509 1509 1509 1509 1509 1508 1508 1507 1507 1506 1506 1505 1503 1503 1502 1501 1500 1499 1498 1497 1497 1496 1495 1495 1494 1493 1493 1492 1492 1492 1491 1492 1493 1493 1493 1493 1494 1494 1494 1495 1495 1495 1495 1495 1494 1495 1495 1495 1496 1496 1497 1497 1498 1499 1499 1499 1500 1500 1501 1501 1502 1502 1503 1503 1503
1495 1495 1498 1501 1503 1504 1505 1506 1506 1507 1507 1506 1506 1506 1506 1507 1507 1507 1508 1508 1508 1508 1508 1508 1507 1507 1507 1506 1506 1505 1505 1504 1503 1502 1501 1500 1499 1498 1497 1495 1494 1493 1492 1492 1491 1490 1489 1489 1488 1487 1487 1487 1487 1488 1488 1488 1489 1490 1490 1490 1491 1491 1491 1491 1491 1491 1492 1492 1492 1493 1493 1494 1494 1495 1496 1496 1496 1496 1497 1497 1497 1498 1498 1499 1499 1499
1496 1498 1500 1502 1503 1504 1504 1503 1504 1505 1505 1505 1506 1506 1506 1506 1507 1507 1507 1507 1507 1507 1507 1507 1507 1506 1506 1506 1505 1504 1503 1503 1502 1500 1499 1498 1497 1496 1494 1493 1491 1490 1489 1488 1486 1486 1485 1484 1483 1482 1481 1481 1482 1483 1483 1484 1485 1485 1486 1486 1486 1486 1486 1486 1487 1488 1488 1489 1489 1489 1490 1490 1491 1491 1492 1492 1492 1493 1493 1493 1493 1493 1494 1495 1495 1495
1496 1498 1500 1500 1501 1501 1501 1501 1503 1503 1503 1504 1505 1505 1506 1506 1506 1506 1507 1507 1507 1507 1506 1506 1506 1505 1505 1504 1503 1502 1501 1500 1499 1498 1496 1496 1495 1493 1492 1490 1488 1487 1485 1484 1483 1481 1480 1479 1478 1477 1476 1476 1476 1476 1477 1479 1480 1481 1482 1482 1482 1482 1482 1482 1483 1483 1484 1485 1486 1486 1487 1487 1488 1488 1488 1488 1488 1489 1489 1489 1489 1489 1490 1490 1491 1491